Flag for Austria Weather past 2 weeks in Graz, Styria, Austria

Now
25 °F

Clear.


Feels Like: 25 °F
Forecast: 26 / 37 °F
Wind: 2 mph from Northwest

Location: Graz-Thalerhof-Flughafen

Current Time: Jan 29, 2015 at 2:08:37 AM

Latest Report: Jan 29, 2015 at 1:20 AM


Visibility: 10 mi

Pressure: 29.68 "Hg

Humidity: 93%

Dew point: 23 °F

Location of GrazLocation

Historic Weather in Graz — Graph

°F

Graz temperature yesterday

Maximum temperature yesterday: 41 °F (at 12:50 PM)
Minimum temperature yesterday: 18 °F (at 4:50 AM)
Average temperature yesterday: 28 °F

Past Weeks' High & Low Weather Summary

 TemperatureHumidityPressure
High59 °F (Jan 16, 2:20 PM)100% (Jan 14, 6:20 AM)30.24 "Hg (Jan 14, 6:20 AM)
Low18 °F (Jan 28, 4:50 AM)40% (Jan 14, 1:50 PM)29.71 "Hg (Jan 29, 12:50 AM)
Average37 °F79%29.96 "Hg
* Reported Jan 14 12:20 AM — Jan 29 12:50 AM, Graz, Weather by CustomWeather, © 2014

Note: Actual official high and low records may vary slightly from our data, if they occured in-between our weather recording intervals... More about our weather records

Advertising

Graz weather history for previous 24 hours

 ConditionsComfort  
Time TempWeatherWind HumidityBarometerVisibility
12:50 AM
Jan 29
23 °FClear.1 mph93%29.71 "Hg10 mi
12:20 AM25 °FCold.1 mph86%29.74 "HgN/A
11:50 PM
Jan 28
25 °FCold.2 mph86%29.74 "HgN/A
11:20 PM23 °FPassing clouds.3 mph86%29.77 "HgN/A
10:50 PM25 °FClear.1 mph93%29.77 "Hg10 mi
10:20 PM27 °FClear.2 mph86%29.80 "Hg10 mi
9:50 PM27 °FClear.1 mph80%29.80 "Hg10 mi
9:20 PM27 °FClear.1 mph80%29.83 "Hg10 mi
8:50 PM28 °FClear.5 mph80%29.86 "Hg10 mi
8:20 PM28 °FClear.2 mph80%29.86 "Hg10 mi
7:50 PM27 °FClear.2 mph80%29.86 "Hg10 mi
7:20 PM30 °FClear.1 mph75%29.89 "Hg10 mi
6:50 PM32 °FClear.2 mph69%29.89 "Hg10 mi
6:20 PM32 °FChilly.6 mph69%29.92 "HgN/A
5:50 PM32 °FClear.8 mph69%29.92 "Hg10 mi
5:20 PM34 °FPassing clouds.7 mph65%29.92 "HgN/A
4:50 PM36 °FPassing clouds.5 mph60%29.92 "HgN/A
4:20 PM37 °FPassing clouds.7 mph60%29.92 "HgN/A
3:50 PM41 °FPassing clouds.8 mph53%29.92 "HgN/A
3:20 PM41 °FPassing clouds.8 mph49%29.95 "HgN/A
2:50 PM41 °FPassing clouds.8 mph49%29.95 "HgN/A
2:20 PM41 °FPassing clouds.8 mph49%29.98 "HgN/A
1:50 PM41 °FPassing clouds.8 mph53%29.98 "HgN/A
1:20 PM41 °FPassing clouds.8 mph49%29.98 "HgN/A
12:50 PM41 °FPassing clouds.8 mph49%30.01 "HgN/A
12:20 PM39 °FPassing clouds.8 mph52%30.01 "HgN/A
11:50 AM37 °FPassing clouds.6 mph65%30.04 "HgN/A
11:20 AM34 °FPassing clouds.5 mph75%30.04 "HgN/A
10:50 AM32 °FPassing clouds.3 mph80%30.04 "HgN/A
10:20 AM32 °FPassing clouds.1 mph80%30.04 "HgN/A
9:50 AM30 °FPassing clouds.2 mph86%30.04 "HgN/A
9:20 AM28 °FPassing clouds.1 mph86%30.04 "HgN/A
8:50 AM25 °FPassing clouds.1 mph93%30.04 "HgN/A
8:20 AM21 °FPassing clouds.1 mph93%30.04 "HgN/A
7:50 AM19 °FPassing clouds.1 mph93%30.04 "HgN/A
7:20 AM19 °FPassing clouds.1 mph100%30.04 "Hg5 mi
6:50 AM19 °FPassing clouds.1 mph93%30.04 "Hg6 mi
6:20 AM19 °FClear.1 mph93%30.04 "Hg5 mi
5:50 AM18 °FClear.1 mph93%30.04 "Hg5 mi
5:20 AM19 °FClear.2 mph100%30.04 "Hg6 mi
4:50 AM18 °FLight freezing rain. Clear.1 mph93%30.04 "Hg3 mi
4:20 AM21 °FClear.3 mph100%30.04 "Hg3 mi
3:50 AM19 °FClear.1 mph100%30.04 "Hg3 mi
3:20 AM19 °FCold.1 mph93%30.04 "Hg4 mi
2:50 AM21 °FLight fog.1 mph100%30.04 "Hg1 mi
2:20 AM21 °FSnow. Overcast.2 mph93%30.04 "Hg4 mi
Weather by CustomWeather, © 2014

See weather overviewHow to use our weather pages